Overview Statistics Trail Chart Weather Telemetry Raw packets
 

This is the latest recevied weather packets stored in our database for station/object HS5AU-13. If no packets are shown the sender has not sent any weather packets the latest 10 day(s).

<< 6 7 8 9 10 11 12 >>
Time Temp. Humidity Pressure Rain* Wind** Luminosity Snow
1788484505 23.89° C 91% 1005.2 hPa 0 mm - 144 W/m² -
1788483905 23.33° C 92% 1004.5 hPa 0 mm - 119 W/m² -
1788483305 23.33° C 93% 1004.6 hPa 0 mm - 79 W/m² -
1788482705 23.33° C 92% 1004.6 hPa 0 mm - 78 W/m² -
1788482105 23.33° C 93% 1004.1 hPa 0 mm - 109 W/m² -
1788481505 23.33° C 92% 1004.2 hPa 0 mm - 135 W/m² -
1788480905 23.33° C 93% 1004 hPa 0 mm - 71 W/m² -
1788480305 23.33° C 93% 1003.7 hPa 0 mm - 45 W/m² -
1788479732 22.78° C 95% 1002.9 hPa 0 mm - 37 W/m² -
1788479105 23.33° C 94% 1002.7 hPa 0 mm - 42 W/m² -
1788478505 23.33° C 93% 1003.3 hPa 0 mm - 26 W/m² -
1788477905 22.78° C 94% 1002.7 hPa 0 mm - 6 W/m² -
1788477305 22.78° C 96% 1002 hPa 0 mm - 2 W/m² -
1788476705 22.78° C 95% 1002.2 hPa 0 mm - 2 W/m² -
1788476105 22.78° C 93% 1002 hPa 0 mm - 2 W/m² -
1788475505 22.78° C 96% 1000.6 hPa 0 mm - 2 W/m² -
1788474905 22.22° C 99% 1004.6 hPa 0 mm - 2 W/m² -
1788474305 21.67° C 99% 1005.1 hPa 0 mm - 2 W/m² -
1788473705 22.22° C 99% 1005.2 hPa 0 mm - 2 W/m² -
1788473105 22.22° C 99% 1005.2 hPa 0 mm - 2 W/m² -
1788472505 22.22° C 99% 1005.2 hPa 0 mm - 2 W/m² -
1788471905 22.22° C 99% 1005.1 hPa 0 mm - 2 W/m² -
1788471305 22.22° C 99% 1005 hPa 0 mm - 2 W/m² -
1788470705 22.22° C 99% 1004.9 hPa 0 mm - 2 W/m² -
1788470105 22.22° C 99% 1004.6 hPa 0 mm - 2 W/m² -

* Rain latest hour (hover to see other rain measurements)
** Current wind speed in m/s (hover to see current wind gust speed)